sat.trackr.live / text

‹ back to catalog

STARLINK-4064

NORAD 52665 · 2022-053K

PAYLOAD ACTIVE UNKNOWN

§ Identity

Operator
Country
US
Launch date
2022-05-18
Launch site
AFETR
Launch vehicle
Mass (kg)
RCS (m²)

Purposes: comms

External: N2YO · Heavens-Above · Gunter

§ Orbital elements

Epoch: 2026-05-25T00:52:41.345760Z

Period
95.44 min
Inclination
53.2130°
Eccentricity
0.0001281
Mean motion
15.08843086 rev/d
Perigee alt
538.8 km
Apogee alt
540.6 km
Semi-major
6,917.9 km
B*
-4.1665e-5
RAAN
171.3857°
Arg perigee
69.2051°
Mean anomaly
290.9078°
Rev number
22,257

§ Raw data

STARLINK-40641 52665U 22053K   26145.03658965 -.00000951  00000+0 -41665-4 0  99982 52665  53.2130 171.3857 0001281  69.2051 290.9078 15.08843086222573

JSON: /api/v1/satellites/52665 · /tle

For live sub-satellite position, see the globe view (requires WebGL).

§ Visibility from observer

Set your observer location to see the next 7 days of passes ≥ 10°. The values pass through the URL so the page stays shareable.

No JS? Fill the form by hand. The geolocation button needs JavaScript.